Location: Saluda
(35.2377°N, 82.3468°W)
Time: 15:29:44
(UTC+00:00)

Explorer 11/Cluster Stage 4 - Pass Details

Date: 08 October 2022
Orbit: 466 x 1247 km, 28.8° (Epoch: 08 December)

Event Time Altitude Azimuth Distance (km) Brightness Sun altitude
Rises 17:57:05 0° 268° (W) 4,180 10.5 47.6°
Reaches altitude 10° 18:00:09 10° 262° (W) 3,213 10.1 47.4°
Maximum altitude 18:07:53 47° 192° (SSW) 1,534 11.4 47.0°
Drops below altitude 10° 18:14:54 10° 122° (ESE) 2,916 9.7 46.5°
Sets 18:17:34 0° 116° (ESE) 3,767 10.1 46.3°
